Orbital Elements at Epoch 2459200.5 (2020-Dec-17.0) TDB
Reference: JPL 28 (heliocentric ecliptic J2000)
Element | Value | Uncertainty (1-sigma) | Units |
e | .144261361230625 | 9.6063e-08 | |
a | 2.521005067252867 | 8.6935e-09 | au |
q | 2.157321444581664 | 2.4343e-07 | au |
i | 1.749247421451383 | 5.2835e-06 | deg |
node | 239.2569882008932 | 0.00022385 | deg |
peri | 190.5151039106648 | 0.00023598 | deg |
M | 155.7733163708483 | 7.4133e-05 | deg |
tp | 2458567.870309905763 (2019-Mar-25.37030991) | 0.00030028 | TDB |
period | 1462.039158823135 4.00 | 7.5626e-06 2.071e-08 | d yr |
n | .2462314349294044 | 1.2737e-09 | deg/d |
Q | 2.884688689924068 | 9.9476e-09 | au |
|
| | Orbit Determination Parameters
Additional Information
|